Weather History for LEVX - March, 2013

Change the Weather History Date:

Saturday, March 30, 2013

  Actual Average Record
Temperature  
Mean Temperature 54 °F -  
Max Temperature 59 °F 60 °F 77 °F (2012)
Min Temperature 50 °F 45 °F 39 °F (2007)
Degree Days  
Heating Degree Days 10    
Growing Degree Days 4 (Base 50)    
Moisture  
Dew Point 49 °F    
Average Humidity 88    
Maximum Humidity 100    
Minimum Humidity 65    
Precipitation  
Precipitation 0.02 in 0.20 in - ()
Sea Level Pressure  
Sea Level Pressure 29.94 in    
Wind  
Wind Speed 9 mph ()    
Max Wind Speed 14 mph    
Max Gust Speed 24 mph    
Visibility 5.6 miles    
Events Fog , Rain    
Averages and records for this station are not official NWS values.
T = Trace of Precipitation, MM = Missing Value Source: Averaged Metar Reports

Daily Weather History Graph

Daily Weather History Graph

Search for Another Location

Airport or City:

Trip Planner

Search our weather history database for the weather conditions in past years. The results will help you decide how hot, cold, wet, or windy it might be!

Date:

Astronomy

Mar. 30, 2013 Rise Set
Actual Time 7:20 AM CET 7:58 PM CET
Civil Twilight 6:52 AM CET 8:26 PM CET
Nautical Twilight 6:18 AM CET 8:59 PM CET
Astronomical Twilight 5:44 AM CET 9:34 PM CET
Moon 11:54 PM CET (3/30) 9:00 AM CET (3/30)
Length of Visible Light 13h 34m
Length of Day
12h 37m
Waning Gibbous, 88% of the Moon is Illuminated
Mar 30
Waning Gibbous
Apr 3
Last Quarter
Apr 10
New
Apr 18
First Quarter
Apr 25
Full

Hourly Weather History & Observations

Time (CET) Temp. Dew Point Humidity Pressure Visibility Wind Dir Wind Speed Gust Speed Precip Events Conditions
12:00 AM 51.8 °F 51.8 °F 100% 29.89 in 1.9 mi WSW 10.4 mph - N/A Fog Patches of Fog
12:30 AM 51.8 °F 51.8 °F 100% 29.89 in 1.9 mi WSW 8.1 mph - N/A Fog Patches of Fog
1:00 AM 53 °F 52 °F 94% 29.90 in 4 mi WSW 11.5 mph - - Fog Light Fog
1:00 AM 51.8 °F 50.0 °F 94% 29.89 in 3.7 mi WSW 11.5 mph 24.2 mph N/A Fog Mostly Cloudy
1:30 AM 51.8 °F 50.0 °F 94% 29.89 in 3.7 mi WSW 6.9 mph - N/A   Mostly Cloudy
2:00 AM 51.8 °F 50.0 °F 94% 29.89 in 3.7 mi WSW 6.9 mph - N/A   Scattered Clouds
2:30 AM 51.8 °F 50.0 °F 94% 29.89 in 3.7 mi SW 9.2 mph - N/A   Scattered Clouds
3:00 AM 50.0 °F 50.0 °F 100% 29.89 in 3.7 mi SW 9.2 mph - N/A   Mostly Cloudy
3:30 AM 50.0 °F 50.0 °F 100% 29.92 in 3.7 mi SSW 8.1 mph - N/A   Scattered Clouds
4:00 AM 50.0 °F 50.0 °F 100% 29.92 in 6.2 mi SW 9.2 mph - N/A   Mostly Cloudy
4:30 AM 50.0 °F 50.0 °F 100% 29.92 in 6.2 mi SSW 9.2 mph - N/A   Mostly Cloudy
5:00 AM 50.0 °F 50.0 °F 100% 29.92 in 6.2 mi SSW 9.2 mph - N/A   Mostly Cloudy
5:30 AM 50.0 °F 50.0 °F 100% 29.92 in 6.2 mi SSW 9.2 mph - N/A   Mostly Cloudy
6:00 AM 50.0 °F 50.0 °F 100% 29.92 in 6.2 mi SSW 6.9 mph - N/A   Mostly Cloudy
6:30 AM 50.0 °F 48.2 °F 94% 29.92 in 3.7 mi SSW 5.8 mph - N/A Rain Rain
7:00 AM 51 °F 49 °F 92% 29.93 in 6 mi South 8.1 mph - - Rain Rain
7:00 AM 50.0 °F 48.2 °F 94% 29.92 in 3.7 mi South 8.1 mph - N/A   Mostly Cloudy
7:30 AM 50.0 °F 48.2 °F 94% 29.92 in 3.1 mi SSW 8.1 mph - N/A   Mostly Cloudy
8:00 AM 50.0 °F 50.0 °F 100% 29.92 in 3.7 mi SSW 8.1 mph - N/A Fog Light Drizzle
8:30 AM 51.8 °F 50.0 °F 94% 29.95 in 3.7 mi SW 9.2 mph - N/A Fog Mostly Cloudy
9:00 AM 51.8 °F 50.0 °F 94% 29.95 in 3.7 mi SW 10.4 mph - N/A   Mostly Cloudy
9:30 AM 51.8 °F 50.0 °F 94% 29.95 in 3.1 mi SW 10.4 mph - N/A Fog Mostly Cloudy
10:00 AM 51.8 °F 50.0 °F 94% 29.95 in 3.7 mi SW 11.5 mph - N/A   Mostly Cloudy
10:30 AM 53.6 °F 51.8 °F 94% 29.98 in 4.3 mi SW 11.5 mph - N/A   Mostly Cloudy
11:00 AM 53.6 °F 51.8 °F 94% 29.98 in 4.3 mi WSW 12.7 mph - N/A   Scattered Clouds
11:30 AM 55.4 °F 50.0 °F 82% 29.98 in 5.6 mi SW 13.8 mph - N/A   Mostly Cloudy
12:00 PM 55.4 °F 50.0 °F 82% 29.98 in 5.6 mi WSW 10.4 mph - N/A   Mostly Cloudy
12:30 PM 55.4 °F 50.0 °F 82% 29.98 in 6.2 mi WSW 12.7 mph - N/A   Mostly Cloudy
1:00 PM 56 °F 48 °F 67% 29.99 in 19 mi WSW 12.7 mph - -   Mostly Cloudy
1:00 PM 55.4 °F 48.2 °F 77% 29.98 in 6.2 mi WSW 11.5 mph - N/A   Mostly Cloudy
1:30 PM 55.4 °F 48.2 °F 77% 29.98 in 6.2 mi WSW 12.7 mph - N/A   Scattered Clouds
2:00 PM 55.4 °F 48.2 °F 77% 29.98 in 6.2 mi WSW 11.5 mph - N/A   Scattered Clouds
2:30 PM 55.4 °F 46.4 °F 72% 29.98 in 6.2 mi WSW 11.5 mph - N/A   Scattered Clouds
3:00 PM 55.4 °F 48.2 °F 77% 29.98 in 6.2 mi WSW 10.4 mph - N/A   Scattered Clouds
3:30 PM 55.4 °F 50.0 °F 82% 29.98 in 6.2 mi WSW 8.1 mph - N/A   Scattered Clouds
4:00 PM 57.2 °F 50.0 °F 77% 29.95 in 6.2 mi WSW 10.4 mph - N/A   Scattered Clouds
4:30 PM 55.4 °F 48.2 °F 77% 29.95 in 6.2 mi WSW 9.2 mph - N/A   Scattered Clouds
5:00 PM 55.4 °F 48.2 °F 77% 29.95 in 6.2 mi WSW 6.9 mph - N/A   Scattered Clouds
5:30 PM 57.2 °F 48.2 °F 72% 29.95 in 6.2 mi WSW 8.1 mph - N/A   Scattered Clouds
6:00 PM 57.2 °F 48.2 °F 72% 29.95 in 6.2 mi WSW 9.2 mph - N/A   Scattered Clouds
6:30 PM 55.4 °F 48.2 °F 77% 29.95 in 6.2 mi West 11.5 mph - N/A   Scattered Clouds
6:37 PM 55.4 °F 46.4 °F 72% 29.95 in 6.2 mi WSW 10.4 mph - N/A   Scattered Clouds
7:00 PM 56 °F 47 °F 65% 29.95 in 16 mi WSW 10.4 mph - -   Scattered Clouds
7:00 PM 55.4 °F 48.2 °F 77% 29.95 in 6.2 mi WSW 9.2 mph - N/A   Scattered Clouds
7:30 PM 53.6 °F 48.2 °F 82% 29.95 in 6.2 mi SW 9.2 mph - N/A   Scattered Clouds
8:00 PM 53.6 °F 48.2 °F 82% 29.95 in 6.2 mi SW 5.8 mph - N/A   Scattered Clouds
8:30 PM 53.6 °F 48.2 °F 82% 29.95 in 6.2 mi SSW 4.6 mph - N/A   Scattered Clouds
9:00 PM 51.8 °F 48.2 °F 88% 29.92 in 6.2 mi South 6.9 mph - N/A   Scattered Clouds
9:30 PM 51.8 °F 50.0 °F 94% 29.92 in 6.2 mi South 3.5 mph - N/A   Scattered Clouds
10:00 PM 50.0 °F 50.0 °F 100% 29.92 in 6.2 mi South 4.6 mph - N/A   Scattered Clouds
10:30 PM 50.0 °F 50.0 °F 100% 29.92 in 6.2 mi SSW 5.8 mph - N/A   Mostly Cloudy
11:00 PM 50.0 °F 50.0 °F 100% 29.92 in 6.2 mi SSW 5.8 mph - N/A   Mostly Cloudy
11:30 PM 50.0 °F 48.2 °F 94% 29.92 in 6.2 mi South 4.6 mph - N/A   Scattered Clouds